Location: Andershausen
(51.8462°N, 9.8595°E)
Time: 10:14:11
(UTC+00:00)

Cosmos 371 Rocket - Pass Details

Date: 18 November 2025
Orbit: 674 x 690 km, 74.0° (Epoch: 11 December)

Event Time Altitude Azimuth Distance (km) Brightness Sun altitude
Rises 17:04:33 0° 172° (S) 3,033 6.7 -14.9°
Reaches altitude 10° 17:07:03 10° 162° (SSE) 2,125 5.7 -15.3°
Maximum altitude 17:11:11 30° 102° (ESE) 1,236 4.1 -15.9°
Enters shadow 17:12:04 28° 82° (E) 1,294 4.1 -16.1°
